TimeMDT,TemperatureF,Dew PointF,Humidity,Sea Level PressureIn,VisibilityMPH,Wind Direction,Wind SpeedMPH,Gust SpeedMPH,PrecipitationIn,Events,Conditions,WindDirDegrees,DateUTC
12:48 AM,42.1,39.0,89,29.96,-9999.0,WNW,4.6,-,N/A,,Unknown,290,2012-10-30 06:48:00
1:48 AM,37.9,35.1,89,29.98,-9999.0,East,6.9,-,N/A,,Unknown,80,2012-10-30 07:48:00
2:48 AM,35.1,34.0,96,30.00,-9999.0,WNW,3.5,-,N/A,,Unknown,290,2012-10-30 08:48:00
3:48 AM,35.1,33.1,92,30.01,-9999.0,WNW,6.9,-,N/A,,Unknown,290,2012-10-30 09:48:00
4:48 AM,37.9,35.1,89,30.02,-9999.0,WNW,6.9,-,N/A,,Unknown,290,2012-10-30 10:48:00
5:48 AM,34.0,32.0,92,30.04,-9999.0,Calm,Calm,-,N/A,,Unknown,0,2012-10-30 11:48:00
6:48 AM,35.1,32.0,89,30.04,-9999.0,West,6.9,-,N/A,,Unknown,280,2012-10-30 12:48:00
7:48 AM,32.0,28.0,85,30.06,-9999.0,Calm,Calm,-,N/A,,Unknown,0,2012-10-30 13:48:00
8:48 AM,37.0,34.0,89,30.05,-9999.0,WNW,4.6,-,N/A,,Unknown,290,2012-10-30 14:48:00
9:48 AM,46.9,39.9,77,30.04,-9999.0,Calm,Calm,-,N/A,,Unknown,0,2012-10-30 15:48:00
10:48 AM,50.0,41.0,71,30.04,-9999.0,WNW,3.5,-,N/A,,Unknown,290,2012-10-30 16:48:00
11:48 AM,55.0,39.9,57,30.02,-9999.0,Calm,Calm,-,N/A,,Unknown,0,2012-10-30 17:48:00
12:48 PM,57.0,39.9,53,30.00,-9999.0,Calm,Calm,-,N/A,,Unknown,0,2012-10-30 18:48:00
1:48 PM,62.1,36.0,38,29.97,-9999.0,WSW,9.2,-,N/A,,Unknown,250,2012-10-30 19:48:00
2:48 PM,64.9,35.1,33,29.96,-9999.0,SW,6.9,-,N/A,,Unknown,230,2012-10-30 20:48:00
3:48 PM,64.9,34.0,32,29.95,-9999.0,West,6.9,-,N/A,,Unknown,260,2012-10-30 21:48:00
4:48 PM,62.1,36.0,38,29.96,-9999.0,SW,4.6,-,N/A,,Unknown,230,2012-10-30 22:48:00
5:48 PM,53.1,37.0,55,29.97,-9999.0,Calm,Calm,-,N/A,,Unknown,0,2012-10-30 23:48:00
6:48 PM,48.0,36.0,63,29.98,-9999.0,Calm,Calm,-,N/A,,Unknown,0,2012-10-31 00:48:00
7:48 PM,44.1,36.0,73,29.99,-9999.0,Calm,Calm,-,N/A,,Unknown,0,2012-10-31 01:48:00
8:48 PM,44.1,36.0,73,29.96,-9999.0,Calm,Calm,-,N/A,,Unknown,0,2012-10-31 02:48:00
9:48 PM,44.1,36.0,73,29.95,-9999.0,SSW,3.5,-,N/A,,Unknown,200,2012-10-31 03:48:00
10:48 PM,36.0,33.1,89,29.96,-9999.0,Calm,Calm,-,N/A,,Unknown,0,2012-10-31 04:48:00
11:48 PM,34.0,30.9,89,29.95,-9999.0,Calm,Calm,-,N/A,,Unknown,0,2012-10-31 05:48:00